THORAD AGENA D DEB

基本信息
目录编号:
42551
目录名称:
THORAD AGENA D DEB
国际标识:
1970-025TH
轨道中心:
EARTH
物体状态:
在轨
发射日期:
1970-04-08 UTC
轨道信息
数据来源: 国际轨道数据
星历时间: 2026-07-13T07:53:20+0800
半长轴: 7264.919km
偏心率: 0.0009554
轨道倾角: 99.976°
近地点辐角: 350.330°
升交点赤经: 270.243°
平近点角: 9.768°
近地点: 879.841km
远地点: 893.723km
周期: 102.708分钟
每日圈数: 14.020279
详细信息
发射场:
AFWTR
轨道高度:
LEO
数据来源:
AOE Integration Group
参考系:
TEME
时间系统:
UTC
历元类型:
SGP4
2D轨道图
3D轨道图
轨道高度分析图
轨道倾角分析图
轨道综合分析图
查看轨道综合分析图